All Starts

   

As of 06.23.17

Michael J. Maker

Add To
Virtual Stable
Back to Profile

All Starts in Thoroughbred Races

Track Date Race Race Type Purse Horse Name Finish Chart Video
GP 01/02/2012 8 Claiming $32,000 Tapaway 9
GP 01/02/2012 10 Claiming $45,000 Bell by the Ridge 6
GP 01/02/2012 10 Claiming $45,000 Argentine Talisman 9
GP 01/02/2012 11 Maiden Claiming $25,000 Truly Devoted 3
FG 01/04/2012 5 Starter Optional Claiming $32,000 Scilly 5
FG 01/05/2012 1 Claiming $18,000 Dynamite Lonnie D 1
PEN 01/05/2012 3 Maiden Special Weight $39,000 Ittai 4
TP 01/05/2012 5 Maiden Claiming $9,000 Beautiful Temper 1
TP 01/05/2012 7 Maiden Special Weight $22,000 Stage Presence 5
TP 01/06/2012 9 Maiden Special Weight $22,000 Dance Idol 3
TP 01/06/2012 9 Maiden Special Weight $22,000 Network News 6
TP 01/07/2012 7 Maiden Claiming $9,000 Time for Dubai 1
TP 01/07/2012 9 Turfway Prevue Stakes $50,000 Mr. Prankster 1
TP 01/07/2012 9 Turfway Prevue Stakes $50,000 Magical Season 2
FG 01/08/2012 9 Allowance Optional Claiming $49,000 Stinking Creek 5
FG 01/11/2012 4 Allowance $49,000 Artemus Kitten 1
GP 01/12/2012 1 Maiden Claiming $33,000 Marine 5
GP 01/12/2012 8 Starter Allowance $39,000 Deputy Darling 4
TP 01/12/2012 5 Claiming $8,000 Swinging Bernie 2
TP 01/12/2012 8 Allowance Optional Claiming $26,000 Becky's Kitten 6
TP 01/12/2012 9 Maiden Claiming $7,000 El Barron 1
FG 01/13/2012 4 Maiden Special Weight $46,000 Crypto Kitten 2
TP 01/13/2012 2 Maiden Claiming $7,000 Strawberry Fire 7
TP 01/13/2012 4 Claiming $9,000 Biogio's Gift 2
TP 01/13/2012 5 Maiden Special Weight $22,000 Maria's Dane 1
TP 01/13/2012 5 Maiden Special Weight $22,000 Tivoli 5
TP 01/13/2012 11 Claiming $7,000 Baron Slew 2
TP 01/13/2012 12 Maiden Claiming $6,000 Five and Five 2
FG 01/14/2012 7 Claiming $27,000 Sustantivo 1
FG 01/14/2012 9 Marie G. Krantz Memorial Handicap $75,000 Juanita 2
GP 01/14/2012 5 Claiming $25,000 Surely Irish 6
GP 01/14/2012 11 Maiden Claiming $25,000 Summer Kitten 5
TP 01/14/2012 6 Claiming $9,000 Pop's Gold 1
TP 01/14/2012 7 Maiden Special Weight $22,000 B. A.'s Mancini 6
TP 01/14/2012 8 Allowance Optional Claiming $24,000 Kitten's Dancer 1
GP 01/15/2012 4 Starter Allowance $25,000 Cantonic 2
GP 01/15/2012 6 Maiden Claiming $22,500 Brave Fleet 3
TP 01/15/2012 4 Claiming $9,000 Beautiful Temper 1
TP 01/15/2012 6 Maiden Special Weight $22,000 Bail Me Out 2
TP 01/15/2012 9 Maiden Special Weight $22,000 Thomas Jefferson 1
GP 01/16/2012 5 Starter Allowance $25,000 Starsilhouette 1
GP 01/19/2012 6 Maiden Special Weight $51,500 Big John B 4
GP 01/19/2012 10 Claiming $29,500 Garryowen 10
GP 01/20/2012 1 Maiden Claiming $16,500 Surf Diva 6
TP 01/20/2012 8 Claiming $7,000 Gypsy Wind 7
TP 01/20/2012 10 Maiden Claiming $9,000 A Giant for Jester 5
FG 01/21/2012 5 Allowance $49,000 Stinking Creek 5
FG 01/21/2012 7 Colonel E. R. Bradley Handicap - Gr. 3 $100,000 Lonesome Street 5
FG 01/21/2012 9 Louisiana Handicap $100,000 Harmonizer 6
GP 01/21/2012 4 Allowance Optional Claiming $60,000 Derby Kitten 5
TP 01/21/2012 8 Allowance Optional Claiming $26,000 William's Kitten 2
TP 01/21/2012 9 Cincinnati Trophy Stakes $50,000 Lotta Lovin 1
FG 01/22/2012 2 Claiming $19,000 Dynamite Lonnie D 4
GP 01/22/2012 4 Claiming $29,500 Tapaway 7
GP 01/22/2012 6 Maiden Special Weight $51,500 Manda Bay 2
GP 01/22/2012 11 Claiming $29,500 Get A Grip (IRE) 8
TP 01/22/2012 7 Maiden Claiming $9,000 Network News 1
GP 01/25/2012 9 Allowance Optional Claiming $53,500 Wayward Sailor 1
GP 01/25/2012 10 Maiden Claiming $16,500 Chyhyryn 8
FG 01/26/2012 9 Allowance Optional Claiming $49,000 Tizanexpense 1
TP 01/27/2012 5 Claiming $9,000 Biogio's Gift 2
TP 01/27/2012 6 Claiming $8,000 Swinging Bernie 1
TP 01/27/2012 11 Maiden Special Weight $22,000 Stage Presence 7
GP 01/28/2012 9 Florida Sunshine Millions Turf Stakes $150,000 Bell by the Ridge 7
HOU 01/28/2012 8 John B. Connally Turf Cup Stakes - Gr. 3 $200,000 Papaw Bodie 1
TP 01/28/2012 7 Maiden Special Weight $22,000 Original Kitten 1
TP 01/28/2012 8 Allowance Optional Claiming $26,000 Breaking Promises 1
TP 01/28/2012 9 Forego Stakes $50,000 Matthewsburg 3
TP 01/28/2012 10 Claiming $7,000 Pop's Gold 8
FG 01/29/2012 9 Allowance Optional Claiming $51,000 Twinspired 2
GP 01/29/2012 10 Holy Bull Stakes - Gr. 3 $400,000 Hansen 2
TP 01/29/2012 5 Claiming $9,000 Eric's Kitten 1
FG 02/02/2012 7 Maiden Special Weight $46,000 Small Kitchen 1
OP 02/03/2012 8 Allowance Optional Claiming $41,000 Isthmus 6
PEN 02/03/2012 4 Maiden Claiming $23,000 Ittai 2
TP 02/03/2012 9 Maiden Special Weight $22,000 Irreverent 2
TP 02/03/2012 10 Allowance Optional Claiming $26,000 Becky's Kitten 3
TP 02/03/2012 12 Maiden Claiming $6,000 Five and Five 1
HOU 02/04/2012 8 Jersey Lilly Stakes $50,000 Artemus Kitten 2
TP 02/04/2012 9 Maiden Special Weight $22,000 Dance Idol 2
TP 02/04/2012 9 Maiden Special Weight $22,000 Tradewater 7
TP 02/04/2012 10 WEBN Stakes $50,000 Mr. Prankster 1
TP 02/04/2012 10 WEBN Stakes $50,000 Magical Season 3
FG 02/05/2012 1 Claiming $21,000 Scilly 3
FG 02/05/2012 3 Starter Optional Claiming $32,000 Harmonizer 4
FG 02/05/2012 7 Maiden Special Weight $46,000 Prime Maker 3
TP 02/05/2012 2 Maiden Claiming $9,000 A Giant for Jester 5
TP 02/05/2012 8 Maiden Special Weight $22,000 Tivoli 1
TP 02/05/2012 9 Allowance Optional Claiming $24,000 Maria's Dane 3
TP 02/10/2012 8 Maiden Claiming $6,000 Strawberry Fire 12
TP 02/10/2012 12 Maiden Claiming $7,000 Surf Diva 2
FG 02/11/2012 9 Tiffany Lass Stakes $75,000 Juanita 3
GP 02/11/2012 2 Maiden Special Weight $51,500 Morgan's Guerrilla 2
GP 02/11/2012 5 Maiden Special Weight $51,500 Big John B 5
TP 02/11/2012 10 Likely Exchange Stakes $50,000 La Gran Bailadora 3
GP 02/16/2012 5 Starter Allowance $25,000 Cantonic 8
FG 02/17/2012 7 Maiden Special Weight $46,000 Crypto Kitten 2
GP 02/17/2012 3 Starter Allowance $25,000 Starsilhouette 1
GP 02/17/2012 7 Claiming $29,500 Dover Beach 2
GP 02/17/2012 10 Maiden Claiming $25,000 Truly Devoted 1
TP 02/17/2012 6 Maiden Special Weight $22,000 B. A.'s Mancini 1
TP 02/17/2012 6 Maiden Special Weight $22,000 Bail Me Out 4
TP 02/17/2012 12 Claiming $7,000 Baron Slew 9
GP 02/18/2012 5 Allowance Optional Claiming $60,000 Bell by the Ridge 3
TP 02/18/2012 4 Maiden Claiming $7,000 A Giant for Jester 6
TP 02/18/2012 5 Claiming $7,000 Five and Five 7
TP 02/18/2012 9 Allowance Optional Claiming $24,000 Thomas Jefferson 2
TP 02/18/2012 10 Dust Commander Stakes $50,000 Tapanna 5
TP 02/18/2012 10 Dust Commander Stakes $50,000 William's Kitten 9
TP 02/19/2012 5 Claiming $8,000 Swinging Bernie 4
TP 02/19/2012 7 Claiming $9,000 Eric's Kitten 2
GP 02/20/2012 9 Allowance Optional Claiming $53,500 Kathern's Kitten 2
TP 02/20/2012 10 Maiden Special Weight $22,000 Irreverent 3
TP 02/24/2012 2 Claiming $7,000 Pop's Gold 5
TP 02/24/2012 3 Maiden Claiming $7,000 Chyhyryn 1
TP 02/24/2012 7 Maiden Claiming $11,000 Tradewater 2
FG 02/25/2012 5 Allowance Optional Claiming $49,000 Stinking Creek 6
FG 02/25/2012 6 Fair Grounds Handicap - Gr. 3 $125,000 Derby Kitten 6
FG 02/25/2012 10 Colonel Power Stakes $75,000 Lonesome Street 5
FG 02/25/2012 11 Risen Star Stakes - Gr. 2 $300,000 Tizanexpense 7
FG 02/25/2012 12 Allowance Optional Claiming $51,000 Twinspired 2
TP 02/25/2012 3 Maiden Claiming $6,000 Strawberry Fire 9
TP 02/25/2012 10 Valdale Stakes $50,000 Lotta Lovin 1
FG 02/26/2012 5 Maiden Special Weight $46,000 Prime Maker 2
TP 02/26/2012 1 Maiden Claiming $7,000 Surf Diva 1
TP 02/26/2012 6 Allowance Optional Claiming $24,000 Network News 3
TP 02/26/2012 7 Allowance Optional Claiming $24,000 Tivoli 3
GP 03/01/2012 7 Claiming $41,500 Deputy Darling 7
GP 03/01/2012 9 Claiming $29,500 Tapaway 1
PEN 03/02/2012 3 Maiden Special Weight $39,000 Ittai 3
AQU 03/03/2012 6 Maiden Special Weight $75,000 Morgan's Guerrilla 1
AQU 03/03/2012 8 Maiden Special Weight $60,000 You So Smart 9
AQU 03/03/2012 10 Gotham Stakes - Gr. 3 $400,000 Hansen 1
FG 03/03/2012 5 Allowance Optional Claiming $51,000 Isthmus 2
GP 03/03/2012 5 Maiden Claiming $28,000 Brave Fleet 8
GP 03/03/2012 8 Maiden Special Weight $57,600 Manda Bay 3
TP 03/03/2012 10 John Battaglia Memorial Stakes $75,000 Mr. Prankster 4
FG 03/04/2012 9 Allowance Optional Claiming $49,000 Small Kitchen 1
GP 03/04/2012 7 Maiden Special Weight $57,600 Dananjay 6
GP 03/04/2012 8 Maiden Claiming $28,000 Romantic Channel 4
GP 03/04/2012 11 Maiden Claiming $28,000 Summer Kitten 6
TP 03/04/2012 4 Claiming $8,300 Time for Dubai 2
GP 03/07/2012 7 Maiden Claiming $44,500 Big John B 2
FG 03/10/2012 10 Black Gold Stakes $75,000 Wayward Sailor 9
GP 03/10/2012 6 Claiming $34,500 Dover Beach 7
TP 03/10/2012 7 Maiden Special Weight $19,600 Bail Me Out 3
TP 03/10/2012 11 Maiden Special Weight $19,600 Irreverent 5
FG 03/11/2012 9 Claiming $28,000 Sustantivo 11
GP 03/11/2012 6 Claiming $36,925 Lou Brissie 6
GP 03/16/2012 9 Claiming $52,650 Ronin Dax 8
TP 03/16/2012 2 Claiming $6,000 Swinging Bernie 2
TP 03/16/2012 12 Claiming $5,300 Five and Five 1
FG 03/17/2012 9 New Orleans Ladies Stakes $150,000 Juanita 2
TP 03/17/2012 4 Maiden Claiming $5,300 A Giant for Jester 4
TP 03/17/2012 5 Claiming $6,800 Surf Diva 4
TP 03/17/2012 7 Claiming $6,800 Eric's Kitten 1
GP 03/18/2012 2 Starter Allowance $25,000 Cantonic 4
GP 03/18/2012 8 Allowance Optional Claiming $66,100 Bell by the Ridge 10
TP 03/18/2012 7 Claiming $6,000 Gypsy Wind 7
GP 03/21/2012 7 Maiden Claiming $44,500 Big John B 3
GP 03/21/2012 10 Starter Allowance $29,250 Starsilhouette 1
GP 03/22/2012 5 Maiden Special Weight $60,350 Into the Fray 3
GP 03/23/2012 1 Claiming $26,350 Garryowen 1
GP 03/23/2012 10 Maiden Claiming $29,250 Romantic Channel 1
TP 03/23/2012 6 Claiming $8,300 Small Axe 3
TP 03/23/2012 12 Claiming $5,300 Baron Slew 2
GP 03/24/2012 2 Maiden Claiming $26,350 This Ones for Jodi 1
TP 03/24/2012 4 Allowance Optional Claiming $23,100 Becky's Kitten 3
TP 03/24/2012 5 Maiden Special Weight $19,600 Bail Me Out 2
TP 03/24/2012 7 Hansel Stakes $50,000 Magical Season 2
TP 03/24/2012 7 Hansel Stakes $50,000 Thomas Jefferson 3
TP 03/24/2012 8 Rushaway Stakes $75,000 Gung Ho 2
TP 03/24/2012 9 Bourbonette Oaks - Gr. 3 $100,000 Original Kitten 8
TP 03/24/2012 10 Vinery Racing Spiral Stakes - Gr. 3 $500,000 Tizanexpense 9
TP 03/24/2012 10 Vinery Racing Spiral Stakes - Gr. 3 $500,000 Mr. Prankster 11
GP 03/25/2012 5 Claiming $34,500 Truly Devoted 4
TP 03/25/2012 6 Maiden Special Weight $19,600 Dananjay 5
TP 03/25/2012 10 Maiden Special Weight $19,600 Sweet On Kitten 1
AQU 03/28/2012 4 Claiming $36,000 Jardenia 4
GP 03/28/2012 9 Claiming $34,500 Chinglish 6
TP 03/30/2012 10 Maiden Claiming $6,800 Wilderness Road 5
FG 03/31/2012 7 Bayou Handicap $100,000 Artemus Kitten 1
FG 03/31/2012 9 Maiden Special Weight $46,000 Prime Maker 7
FG 03/31/2012 10 Fair Grounds Oaks - Gr. 2 $500,000 Small Kitchen 4
PEN 03/31/2012 1 Maiden Special Weight $39,000 Ittai 1
TP 03/31/2012 7 Claiming $6,000 Swinging Bernie 1
FG 04/01/2012 9 Mervin H. Muniz Jr. Memorial Handicap - Gr. 2 $400,000 Papaw Bodie 2
GP 04/01/2012 8 Claiming $48,625 Ronin Dax 7
TP 04/01/2012 8 Allowance Optional Claiming $21,400 B. A.'s Mancini 4
TP 04/01/2012 9 Claiming $5,300 Pop's Gold 1
KEE 04/06/2012 4 Allowance Optional Claiming $62,000 Breaking Promises 8
KEE 04/06/2012 9 Transylvania Stakes - Gr. 3 $100,000 Wayward Sailor 6
HAW 04/07/2012 6 Maiden Claiming $13,500 Tradewater 1
HAW 04/07/2012 9 Illinois Derby - Gr. 3 $500,000 Morgan's Guerrilla 2
KEE 04/07/2012 6 Allowance $54,000 Thomas Jefferson 7
KEE 04/07/2012 8 Central Bank Ashland Stakes - Gr. 1 $500,000 Lotta Lovin 7
KEE 04/12/2012 1 Claiming $44,000 Bell by the Ridge 3
KEE 04/12/2012 2 Claiming $19,000 Dover Beach 3
KEE 04/12/2012 3 Maiden Special Weight $50,000 Crypto Kitten 8
KEE 04/12/2012 5 Maiden Special Weight $50,000 Joha 2
KEE 04/13/2012 8 Maiden Special Weight $50,000 Manda Bay 8
KEE 04/14/2012 4 Maiden Special Weight $50,000 Regal Quest 10
KEE 04/14/2012 5 Allowance $62,000 Derby Kitten 7
KEE 04/14/2012 7 Allowance $54,000 B. A.'s Mancini 8
KEE 04/14/2012 9 Commonwealth Stakes - Gr. 2 $175,000 Lonesome Street 1
KEE 04/14/2012 11 Toyota Blue Grass Stakes - Gr. 1 $750,000 Hansen 2
KEE 04/14/2012 11 Toyota Blue Grass Stakes - Gr. 1 $750,000 Gung Ho 3
KEE 04/15/2012 2 Claiming $17,000 Lou Brissie 4
KEE 04/15/2012 3 Maiden Claiming $19,000 Kathy's Kitten 1
IND 04/18/2012 8 Allowance Optional Claiming $39,000 Harmonizer 3
KEE 04/18/2012 2 Starter Allowance $20,000 Swinging Bernie 2
KEE 04/18/2012 3 Maiden Claiming $19,000 Miss Kitten 7
KEE 04/18/2012 4 Claiming $17,000 Garryowen 2
KEE 04/18/2012 7 Claiming $25,000 Time for Dubai 3
KEE 04/18/2012 9 Maiden Claiming $19,000 Irreverent 9
AQU 04/19/2012 5 Starter Handicap $40,000 Cantonic 1
AQU 04/19/2012 9 Maiden Claiming $43,000 Big John B 2
KEE 04/19/2012 1 Claiming $22,000 William's Kitten 2
KEE 04/19/2012 5 Allowance $54,000 Tapaway 3
KEE 04/19/2012 6 Starter Allowance $28,000 Romantic Channel 7
HAW 04/20/2012 1 Allowance Optional Claiming $36,000 Isthmus 1
KEE 04/20/2012 4 Maiden Claiming $17,000 Wound Up 3
KEE 04/20/2012 8 Maiden Special Weight $50,000 Into the Fray 1
KEE 04/20/2012 9 Hilliard Lyons Doubledogdare Stakes - Gr. 3 $100,000 La Gran Bailadora 3
KEE 04/21/2012 2 Claiming $25,000 This Ones for Jodi 7
KEE 04/21/2012 4 Starter Allowance $20,000 Starsilhouette 1
KEE 04/21/2012 7 Allowance $58,000 Kitten's Dancer 9
KEE 04/21/2012 9 Coolmore Lexington Stakes - Gr. 3 $200,000 Morgan's Guerrilla 11
KEE 04/22/2012 7 Allowance $58,000 Twinspired 3
KEE 04/22/2012 9 Claiming $25,000 Springcourt 3
KEE 04/22/2012 9 Claiming $25,000 Stinking Creek 4
KEE 04/25/2012 2 Claiming $37,000 Becky's Kitten 2
KEE 04/25/2012 6 Claiming $25,000 Truly Devoted 11
KEE 04/26/2012 1 Maiden Special Weight $50,000 Joha 3
KEE 04/26/2012 3 Claiming $44,000 Bell by the Ridge 1
KEE 04/26/2012 5 Claiming $35,000 Wayward Sailor 1
KEE 04/26/2012 7 Allowance Optional Claiming $62,000 Artemus Kitten 7
KEE 04/27/2012 6 Allowance Optional Claiming $62,000 Stately Victor 2
HAW 04/28/2012 2 Maiden Special Weight $34,000 Satyana 3
CD 05/01/2012 6 Starter Allowance $23,500 Major Marvel 1
CD 05/02/2012 3 Maiden Claiming $19,300 Regal Quest 2
CD 05/02/2012 4 Claiming $22,500 Dynamite Lonnie D 2
BEL 05/03/2012 2 Claiming $31,000 Jardenia 1
CD 05/03/2012 6 Maiden Claiming $19,300 Summer Kitten 2
CD 05/03/2012 10 Allowance Optional Claiming $60,600 Isthmus 1
AP 05/04/2012 9 Maiden Claiming $15,500 Miss Kitten 1
CD 05/04/2012 6 La Troienne Stakes - Gr. 2 $300,000 Juanita 1
CD 05/04/2012 7 Eight Belles Stakes - Gr. 3 $100,000 Small Kitchen 7
CD 05/04/2012 10 American Turf Stakes - Gr. 2 $200,000 Gung Ho 7
AP 05/05/2012 4 Starter Allowance $32,000 Hey Cuz 4
AP 05/05/2012 7 Claiming $12,000 Pop's Gold 4
CD 05/05/2012 4 Allowance Optional Claiming $60,600 Derby Kitten 4
CD 05/05/2012 10 Woodford Reserve Turf Classic Stakes - Gr. 1 $500,000 Papaw Bodie 6
CD 05/05/2012 11 Kentucky Derby Presented by Yum! Brands - Gr. 1 $2,000,000 Hansen 9
AP 05/06/2012 1 Maiden Special Weight $40,000 Bail Me Out 3
BEL 05/11/2012 1 Starter Handicap $50,000 Starsilhouette 4
BEL 05/11/2012 9 Maiden Special Weight $60,000 Crypto Kitten 4
IND 05/11/2012 3 Allowance Optional Claiming $39,000 Breaking Promises 1
BEL 05/12/2012 2 Maiden Claiming $49,000 Big John B 2
CD 05/12/2012 5 Claiming $24,600 Dover Beach 7
CD 05/12/2012 10 Claiming $25,000 B. A.'s Mancini 6
AP 05/13/2012 5 Allowance Optional Claiming $44,000 Tapanna 7
CD 05/13/2012 2 Claiming $16,000 Ninety Five South 2
CD 05/13/2012 3 Claiming $24,600 Sweet On Kitten 7
IND 05/15/2012 5 Allowance $39,000 Buster Rose 3
BEL 05/17/2012 7 Claiming $40,000 Becky's Kitten 1
BEL 05/17/2012 8 Starter Handicap $50,000 Harmonizer 4
CD 05/17/2012 8 Allowance $55,300 Holiday Broad 7
CD 05/17/2012 9 Claiming $18,200 Lay Up 9
AP 05/18/2012 1 Allowance Optional Claiming $44,000 Kitten's Dancer 2
AP 05/18/2012 7 Maiden Special Weight $40,000 Satyana 4
BEL 05/18/2012 9 Claiming $41,000 Tapaway 1
CD 05/18/2012 3 Claiming $28,900 Original Kitten 3
CD 05/18/2012 7 Claiming $44,000 Bell by the Ridge 3
AP 05/19/2012 9 Hanshin Cup Stakes - Gr. 3 $150,000 Lonesome Street 2
BEL 05/19/2012 1 Claiming $31,000 Springcourt 2
CD 05/19/2012 2 Claiming $15,000 El Barron 5
BEL 05/20/2012 2 Tiller Stakes $90,000 Mr. Prankster 3
CD 05/20/2012 2 Maiden Claiming $19,300 Summer Kitten 5
CD 05/20/2012 8 Allowance $58,000 Twinspired 2
PEN 05/23/2012 7 Allowance $40,000 Ittai 6
BEL 05/24/2012 6 Maiden Special Weight $70,000 Joha 1
CD 05/24/2012 2 Claiming $28,900 Wayward Sailor 1
BEL 05/25/2012 7 Starter Allowance $60,000 Lemons to Lemonade 6
CD 05/25/2012 3 Starter Allowance $23,500 Major Marvel 1
AP 05/26/2012 7 Arlington Matron Stakes - Gr. 3 $150,000 La Gran Bailadora 5
BEL 05/26/2012 7 Claiming $31,000 Truly Devoted 5
CD 05/26/2012 1 Claiming $18,200 Stinking Creek 3
CD 05/26/2012 10 Louisville Handicap - Gr. 3 $100,000 Derby Kitten 8
CD 05/27/2012 9 Allowance Optional Claiming $55,300 Into the Fray 6
BEL 05/28/2012 8 Ogden Phipps Handicap - Gr. 1 $400,000 Juanita 5
CD 05/28/2012 7 Claiming $16,500 This Ones for Jodi 2
CD 05/28/2012 9 Claiming $36,400 Thomas Jefferson 5
CD 05/28/2012 10 Maiden Special Weight $58,300 Southern Joy 6
AP 05/30/2012 2 Starter Allowance $14,000 Swinging Bernie 1
BEL 05/31/2012 6 Maiden Claiming $45,000 Revere 3
CD 05/31/2012 5 Maiden Claiming $28,300 Wandering Kitten 4
CD 05/31/2012 7 Allowance Optional Claiming $70,100 Furthest Land 5
CD 05/31/2012 8 Allowance Optional Claiming $59,800 Morgan's Guerrilla 2
AP 06/01/2012 9 Claiming $19,000 Miss Kitten 3
BEL 06/01/2012 2 Maiden Special Weight $75,000 Let the Kitten Run 5
BEL 06/01/2012 7 Starter Optional Claiming $60,000 Magical Season 3
CD 06/01/2012 4 Claiming $16,500 Dover Beach 2
CD 06/01/2012 5 Maiden Special Weight $57,300 Left First 6
CD 06/01/2012 9 Claiming $28,300 Tater Downs 2
CD 06/01/2012 11 Claiming $16,500 Sweet On Kitten 2
AP 06/02/2012 8 Meafara Stakes $65,000 Lotta Lovin 4
BEL 06/02/2012 5 Maiden Special Weight $60,000 Crypto Kitten 5
CD 06/02/2012 4 Claiming $27,100 Romantic Channel 9
CD 06/02/2012 8 Early Times Mint Julep Handicap - Gr. 3 $100,000 Artemus Kitten 5
CD 06/02/2012 10 Maiden Special Weight $57,300 Prime Maker 3
BEL 06/03/2012 1 Starter Handicap $50,000 Harmonizer 2
CD 06/03/2012 6 Maiden Special Weight $57,300 Bail Me Out 2
RD 06/06/2012 1 Maiden Special Weight $6,200 Sharp Dancer 4
BEL 06/07/2012 4 Maiden Claiming $49,000 Big John B 1
BEL 06/07/2012 6 Maiden Claiming $48,000 Manda Bay 1
CD 06/07/2012 3 Claiming $28,300 Original Kitten 2
AP 06/08/2012 5 Allowance Optional Claiming $46,000 Stately Victor 2
CD 06/08/2012 1 Claiming $24,000 Tapanna 1
CD 06/08/2012 4 Claiming $42,400 Isthmus 2
BEL 06/09/2012 10 Woodford Reserve Manhattan Handicap - Gr. 1 $500,000 Papaw Bodie 2
BEL 06/09/2012 13 Maiden Special Weight $60,000 Sneaky Kitten 2
CD 06/09/2012 2 Claiming $18,800 Time for Dubai 3
CD 06/09/2012 9 Claiming $16,500 Lay Up 2
PRX 06/11/2012 9 Starter Allowance $37,000 Cantonic 1
BEL 06/13/2012 2 Allowance Optional Claiming $64,000 Freud's Notebook 3
IND 06/13/2012 1 Starter Handicap $32,000 Swinging Bernie 1
IND 06/13/2012 5 Oliver Stakes $200,000 Mr. Prankster 5
BEL 06/15/2012 1 Claiming $29,000 Truly Devoted 1
CD 06/15/2012 3 Allowance Optional Claiming $62,500 Homerun Berti 1
CD 06/16/2012 4 Allowance Optional Claiming $62,500 Breaking Promises 7
CD 06/16/2012 11 Maiden Special Weight $57,300 Manly 1
CD 06/16/2012 11 Maiden Special Weight $57,300 Loud Pipes 5
PEN 06/16/2012 8 Claiming $19,000 Ittai 2
PID 06/16/2012 8 Allowance $43,000 Kitten's Dancer 3
CD 06/17/2012 2 Claiming $35,300 Gentle Tap 1
CD 06/17/2012 3 Maiden Special Weight $57,300 Kamchatka 8
CD 06/17/2012 4 Claiming $27,100 Network News 4
CD 06/17/2012 6 Maiden Claiming $15,400 Summer Kitten 1
CD 06/17/2012 8 Allowance Optional Claiming $62,500 Twinspired 5
IND 06/18/2012 9 Allowance $39,000 Buster Rose 2
BEL 06/20/2012 5 Starter Handicap $53,000 Major Marvel 1
IND 06/20/2012 5 J. Kenneth Self Shelby County Boys and Girls Club Stakes $100,000 Lonesome Street 5
PID 06/20/2012 5 Karl Boyes Memorial Stakes $100,000 Matthewsburg 8
PID 06/20/2012 7 Maiden Special Weight $39,000 Satyana 3
BEL 06/22/2012 1 Starter Optional Claiming $60,000 Manda Bay 5
BEL 06/22/2012 2 Maiden Claiming $45,000 Revere 2
CD 06/22/2012 9 Claiming $16,500 Time for Dubai 2
CD 06/22/2012 11 Claiming $16,500 Irving Rules 3
CD 06/23/2012 4 Claiming $20,000 Sweet On Kitten 2
CD 06/23/2012 8 Allowance Optional Claiming $65,500 Artemus Kitten 3
CD 06/23/2012 11 Maiden Claiming $21,200 Wound Up 5
BEL 06/24/2012 3 Claiming $28,000 Dynamite Lonnie D 4
CD 06/24/2012 9 Claiming $31,800 Wayward Sailor 6
BEL 06/27/2012 1 Claiming $32,000 Jardenia 5
BEL 06/27/2012 5 Maiden Special Weight $55,000 Crypto Kitten 2
IND 06/27/2012 8 Starter Handicap $34,000 Swinging Bernie 2
CD 06/29/2012 5 Claiming $30,800 Thomas Jefferson 7
BEL 06/30/2012 1 Claiming $30,000 Romantic Channel 3
BEL 06/30/2012 10 Dwyer Stakes - Gr. 2 $200,000 Morgan's Guerrilla 3
CD 06/30/2012 4 Allowance $59,800 Manly 1
CD 06/30/2012 11 Maiden Special Weight $57,300 Bail Me Out 3
PID 06/30/2012 5 Claiming $26,000 Hey Cuz 1
PRM 06/30/2012 8 Iowa Derby - Gr. 3 $250,000 Hansen 1
PRM 06/30/2012 9 Prairie Meadows Cornhusker Handicap - Gr. 3 $300,000 Headache 6
BEL 07/01/2012 1 Claiming $55,000 Bell by the Ridge 9
WO 07/01/2012 8 Dominion Day Stakes - Gr. 3 $200,000 Stately Victor 3
PRX 07/02/2012 9 Starter Handicap $45,000 Cantonic 1
IND 07/03/2012 5 Allowance Optional Claiming $39,000 Breaking Promises 1
PRX 07/03/2012 7 Starter Handicap $45,000 Starsilhouette 1
BEL 07/04/2012 3 Starter Optional Claiming $55,000 Pelago 7
ELP 07/04/2012 5 Claiming $10,000 Irving Rules 2
ELP 07/04/2012 7 Claiming $10,000 Lay Up 1
BEL 07/05/2012 2 Maiden Special Weight $70,000 Loud Pipes 5
BEL 07/05/2012 2 Maiden Special Weight $70,000 Roheryn 8
BEL 07/05/2012 4 Maiden Claiming $46,000 Wandering Kitten 2
BEL 07/05/2012 8 Allowance Optional Claiming $81,000 Formulaforsuccess 4
BEL 07/06/2012 7 Maiden Special Weight $70,000 Living My Dream 4
ELP 07/06/2012 6 Claiming $11,000 Sweet On Kitten 3
PID 07/06/2012 3 Allowance Optional Claiming $43,000 Brandys Secret 6
BEL 07/07/2012 2 Maiden Special Weight $60,000 Sneaky Kitten 1
BEL 07/08/2012 4 Claiming $40,000 Harmonizer 8
BEL 07/08/2012 6 Claiming $30,000 Truly Devoted 3
ELP 07/08/2012 7 Maiden Special Weight $31,000 Left First 4
IND 07/11/2012 7 Allowance Optional Claiming $36,000 Tater Downs 1
IND 07/11/2012 12 Allowance $60,000 Matthewsburg 3
BEL 07/13/2012 7 Starter Optional Claiming $55,000 Magical Season 4
ELP 07/13/2012 8 Claiming $14,500 B. A.'s Mancini 3
AP 07/14/2012 1 Coach Jimi Lee Stakes $65,000 Mr. Prankster 5
ELP 07/14/2012 8 Ellis Park Turf Stakes $50,000 Artemus Kitten 1
WO 07/14/2012 8 Colin Stakes $150,000 Joha 1
BEL 07/15/2012 4 Claiming $28,000 Pelago 6
BEL 07/15/2012 5 Maiden Special Weight $55,000 Crypto Kitten 8
BEL 07/15/2012 6 Maiden Claiming $26,000 End 1
BEL 07/15/2012 9 Allowance Optional Claiming $77,000 Holiday Broad 7
PRX 07/15/2012 9 Claiming $23,000 Dynamite Lonnie D 11
WO 07/18/2012 7 Bold Venture Stakes - Gr. 3 $150,000 Lonesome Street 4
PID 07/19/2012 2 Allowance Optional Claiming $43,000 Lotta Lovin 2
SAR 07/20/2012 6 Claiming $40,000 Tapanna 6
SAR 07/20/2012 10 Maiden Claiming $37,000 Roheryn 5
SAR 07/21/2012 8 Claiming $37,000 Romantic Channel 9
ELP 07/22/2012 1 Maiden Claiming $9,500 Wound Up 4
ELP 07/22/2012 9 Claiming $10,500 Lay Up 1
SAR 07/23/2012 1 Claiming $41,000 Tightend Touchdown 4
SAR 07/23/2012 10 Claiming $41,000 Into the Fray 2
SAR 07/25/2012 6 Starter Optional Claiming $70,000 Magical Season 4
SAR 07/25/2012 7 Maiden Claiming $35,000 Market Strike 9
SAR 07/25/2012 10 Claiming $43,000 Ronin Dax 8
SAR 07/26/2012 8 Quick Call Stakes $100,000 Manly 6
SAR 07/26/2012 10 Claiming $52,000 Bell by the Ridge 4
ELP 07/27/2012 2 Maiden Claiming $9,500 Awesome Angie 2
ELP 07/27/2012 3 Allowance Optional Claiming $35,000 Kitten's Dancer 6
CBY 07/28/2012 7 Mystic Lake Derby $150,000 Gung Ho 7
ELP 07/28/2012 3 Claiming $10,000 Irving Rules 2
ELP 07/29/2012 1 Maiden Claiming $15,000 Street Hoss 1
ELP 07/29/2012 8 Maiden Special Weight $31,000 Satyana 5
SAR 07/29/2012 4 Maiden Special Weight $85,000 Let the Kitten Run 8
SAR 07/29/2012 8 Claiming $38,000 Jardenia 10
SAR 07/29/2012 11 Claiming $50,400 Hey Cuz 8
SAR 07/30/2012 1 Claiming $38,000 Wayward Sailor 2
SAR 07/30/2012 5 Maiden Special Weight $80,000 Smittenwithkitten 2
HOO 08/01/2012 3 Allowance $38,000 Tater Downs 3
HOO 08/02/2012 9 Allowance $50,000 Buster Rose 2
SAR 08/02/2012 9 Starter Optional Claiming $65,000 Sly Warrior 1
ELP 08/03/2012 2 Claiming $16,000 Horned Frog 7
PID 08/03/2012 2 Maiden Special Weight $39,000 Alydorable 12
SAR 08/03/2012 5 Maiden Special Weight $80,000 Ramsey Branch 5
SAR 08/03/2012 7 Maiden Claiming $50,000 Southern Joy 7
ELP 08/04/2012 5 Claiming $14,500 Network News 6
ELP 08/04/2012 8 Allowance Optional Claiming $35,000 Matthewsburg 6
ELP 08/04/2012 9 Claiming $14,500 B. A.'s Mancini 6
MNR 08/04/2012 5 West Virginia Senate President's Cup Stakes $100,000 Artemus Kitten 9
MNR 08/04/2012 7 West Virginia Governor's Stakes $200,000 Headache 2
MNR 08/04/2012 8 West Virginia Derby - Gr. 2 $750,000 Hansen 4
MNR 08/04/2012 9 West Virginia House of Delegates Speaker's Cup Stakes $100,000 Major Marvel 1
SAR 08/04/2012 3 Maiden Special Weight $80,000 Revelationist 7
SAR 08/04/2012 4 Allowance $67,000 Sneaky Kitten 3
SAR 08/05/2012 3 Maiden Special Weight $80,000 Loud Pipes 2
PRX 08/06/2012 9 Starter Handicap $50,000 Swinging Bernie 5
SAR 08/06/2012 3 Claiming $38,000 Ronin Dax 3
SAR 08/06/2012 10 Maiden Claiming $60,000 Living My Dream 9
PRX 08/07/2012 9 Starter Handicap $50,000 Starsilhouette 7
SAR 08/09/2012 6 Claiming $40,000 Tapanna 5
ELP 08/10/2012 1 Maiden Claiming $11,500 Wound Up 9
ELP 08/10/2012 8 Maiden Special Weight $31,000 Left First 7
ELP 08/10/2012 8 Maiden Special Weight $31,000 Maker Reigns 9
PID 08/10/2012 4 Malvern Rose Stakes $75,000 Lotta Lovin 1
SAR 08/10/2012 1 Claiming $41,000 Tightend Touchdown 7
ELP 08/11/2012 1 Claiming $11,500 Favorite Flavor 3
ELP 08/11/2012 4 Maiden Claiming $9,500 Ha Ha Fooled Ya 1
SAR 08/11/2012 8 Maiden Claiming $35,000 Marine 5
ELP 08/12/2012 8 Maiden Special Weight $31,000 I Do Believe 5
ELP 08/12/2012 9 Maiden Claiming $9,500 Awesome Angie 1
SAR 08/12/2012 7 Maiden Special Weight $85,000 Kitten's Dumplings 1
SAR 08/13/2012 5 Claiming $40,000 Hey Cuz 6
SAR 08/13/2012 10 Claiming $46,000 Magical Season 3
SAR 08/15/2012 2 Maiden Claiming $38,000 Crypto Kitten 2
SAR 08/15/2012 6 Claiming $52,000 Bell by the Ridge 4
SAR 08/16/2012 7 Claiming $46,000 Manda Bay 8
ELP 08/17/2012 2 Claiming $10,000 Irving Rules 2
SAR 08/17/2012 10 Claiming $48,000 Holiday Broad 6
SAR 08/19/2012 4 Starter Optional Claiming $70,000 Giant Sleep 7
SAR 08/19/2012 5 Maiden Special Weight $85,000 Always Kitten 2
WO 08/19/2012 6 Belle Mahone Stakes $100,000 Juanita 9
PID 08/22/2012 5 Allowance Optional Claiming $45,000 Brandys Secret 1
PID 08/22/2012 7 Claiming $16,000 Thomas Jefferson 10
SAR 08/23/2012 5 Maiden Claiming $38,000 Southern Joy 5
SAR 08/23/2012 6 Maiden Special Weight $80,000 Kamchatka 4
ELP 08/24/2012 1 Maiden Claiming $15,000 Corinthian Charm 4
ELP 08/24/2012 9 Maiden Claiming $10,000 Roheryn 2
SAR 08/24/2012 10 Maiden Claiming $38,000 Let the Kitten Run 2
ELP 08/25/2012 5 Claiming $10,000 Awesome Angie 4
HOO 08/25/2012 8 Brickyard Stakes $84,000 Buster Rose 6
SAR 08/25/2012 7 Allowance $67,000 Sneaky Kitten 4
ELP 08/26/2012 2 Maiden Claiming $9,500 Market Strike 3
ELP 08/26/2012 4 Claiming $10,000 Horned Frog 1
RD 08/26/2012 1 Maiden Special Weight $6,200 Sharp Dancer 2
SAR 08/26/2012 8 Claiming $38,000 Ronin Dax 5
SAR 08/27/2012 10 Maiden Special Weight $80,000 Loud Pipes 2
SAR 08/29/2012 5 Maiden Special Weight $85,000 Brickyard Kitten 3
SAR 08/29/2012 5 Maiden Special Weight $85,000 Revelationist 10
WO 08/29/2012 1 Claiming $57,000 Mr. Prankster 5
SAR 08/30/2012 5 Allowance Optional Claiming $82,000 Giant Sleep 8
SAR 08/30/2012 10 With Anticipation Stakes - Gr. 2 $200,000 Joha 2
SAR 08/30/2012 11 Maiden Claiming $38,000 Crypto Kitten 7
SAR 08/31/2012 2 Starter Optional Claiming $70,000 Cantonic 1
SAR 08/31/2012 4 Maiden Special Weight $85,000 Smittenwithkitten 6
SAR 08/31/2012 5 Claiming $52,000 King Ting (IRE) 1
SAR 08/31/2012 9 Claiming $41,000 Basalt 9
ELP 09/01/2012 1 Starter Allowance $14,000 Swinging Bernie 3
SAR 09/01/2012 3 Claiming $37,000 Coffee Boy 5
ELP 09/02/2012 6 Claiming $11,000 Romantic Channel 1
SAR 09/02/2012 6 Claiming $36,000 Annelle 10
SAR 09/02/2012 7 Starter Optional Claiming $70,000 Steal the Dance 5
ELP 09/03/2012 6 Maiden Special Weight $31,000 Maker Reigns 7
SAR 09/03/2012 7 Allowance Optional Claiming $82,000 Sly Warrior 1
TP 09/06/2012 9 Claiming $6,500 Horned Frog 1
KD 09/08/2012 1 Maiden Claiming $20,000 Left First 3
KD 09/08/2012 6 Kentucky Downs Turf Dash Stakes $75,000 Glacier Bay 5
LAD 09/08/2012 3 Temperence Hill Stakes $50,000 Parent's Honor 5
LAD 09/08/2012 8 Unbridled Stakes $100,000 Major Marvel 4
LAD 09/08/2012 9 Sunday Silence Stakes $150,000 Kamchatka 3
LAD 09/08/2012 11 Happy Ticket Stakes $100,000 Always Kitten 1
PID 09/08/2012 5 Allowance $43,000 Hey Cuz 4
PRX 09/08/2012 7 Dr. Theresa Garofalo Memorial Stakes $75,000 Lotta Lovin 6
TP 09/08/2012 8 Allowance Optional Claiming $23,000 Manda Bay 6
MNR 09/11/2012 4 Maiden Special Weight $17,600 Dimples 2
BEL 09/12/2012 3 Starter Optional Claiming $53,000 Original Art 3
KD 09/12/2012 2 Claiming $20,000 Ha Ha Fooled Ya 6
KD 09/12/2012 5 Maiden Special Weight $60,000 Living My Dream 11
KD 09/12/2012 6 Claiming $21,000 Romantic Channel 9
BEL 09/13/2012 5 Groovy Stakes $80,000 Manly 5
TP 09/13/2012 5 Maiden Special Weight $21,000 Satyana 1
TP 09/13/2012 7 Maiden Special Weight $21,000 Smokinindaboysroom 2
TP 09/13/2012 9 Maiden Claiming $5,500 Wound Up 2
TP 09/14/2012 1 Maiden Claiming $6,500 D Shirt Maker 4
BEL 09/15/2012 1 Maiden Special Weight $73,000 Brickyard Kitten 5
KD 09/15/2012 1 Allowance $64,000 Freshman Dorm 1
KD 09/15/2012 9 Kentucky Cup Turf Stakes - Gr. 3 $200,000 Kindergarden Kid 3
PRX 09/15/2012 11 PTHA President's Cup Stakes $250,000 Cantonic 4
TP 09/15/2012 8 Maiden Special Weight $21,000 Loud Pipes 1
WO 09/15/2012 6 Natalma Stakes - Gr. 2 $250,000 Kitten's Dumplings 4
TP 09/16/2012 8 Maiden Special Weight $21,000 Countess Clare 1
WO 09/16/2012 7 Ontario Derby - Gr. 3 $150,000 Gung Ho 4
PID 09/18/2012 4 Claiming $27,000 More Miss Crissy 4
KD 09/19/2012 3 Claiming $25,000 Holiday Broad 2
KD 09/19/2012 6 Allowance Optional Claiming $62,000 Steal the Dance 4
PID 09/20/2012 1 Maiden Special Weight $41,000 Kitten Goes Pro 6
PID 09/20/2012 3 Allowance Optional Claiming $45,000 Twinspired 4
TP 09/20/2012 4 Maiden Claiming $5,500 Market Strike 1
PID 09/21/2012 8 Claiming $18,000 Matthewsburg 3
TP 09/21/2012 4 Claiming $7,500 Ha Ha Fooled Ya 1
TP 09/21/2012 9 Maiden Special Weight $21,000 Louie Villain 6
PID 09/22/2012 1 Maiden Special Weight $41,000 Bau Bai Gold 9
TP 09/22/2012 9 Allowance Optional Claiming $23,000 Tapanna 1
TP 09/22/2012 10 Allowance Optional Claiming $23,000 Lemons to Lemonade 1
TP 09/22/2012 11 Maiden Special Weight $21,000 Southern Joy 1
PID 09/25/2012 3 Allowance Optional Claiming $48,000 Derby Kitten 2
PID 09/26/2012 3 Allowance $43,000 Hey Cuz 6
TP 09/27/2012 2 Maiden Claiming $5,500 Wound Up 1
TP 09/28/2012 1 Maiden Claiming $6,500 Run Kitten Run 3
TP 09/28/2012 10 Maiden Special Weight $21,000 Mile Range 1
BEL 09/29/2012 4 Allowance $59,000 Sneaky Kitten 7
BEL 09/29/2012 9 Joe Hirsch Turf Classic Invitational Stakes - Gr. 1 $600,000 Kindergarden Kid 3
PID 09/29/2012 1 Starter Allowance $71,000 Brandys Secret 1
TP 09/29/2012 10 Allowance Optional Claiming $23,000 Giant Sleep 3
TP 09/30/2012 8 Allowance Optional Claiming $25,000 Brother Bird 2
BEL 10/05/2012 3 Claiming $28,000 Basalt 1
KEE 10/05/2012 1 Maiden Claiming $20,000 Admiral Kitten 1
KEE 10/05/2012 1 Maiden Claiming $20,000 Maker Reigns 9
KEE 10/05/2012 3 Claiming $16,000 Horned Frog 2
KEE 10/05/2012 7 Allowance $54,000 Twinspired 6
KEE 10/05/2012 8 Stoll Keenon Ogden Phoenix Stakes - Gr. 3 $175,000 Lonesome Street 7
KEE 10/05/2012 9 Darley Alcibiades Stakes - Gr. 1 $400,000 Kitten's Dumplings 11
BEL 10/06/2012 9 Jamaica Handicap - Gr. 1 $400,000 King David 1
HOO 10/06/2012 12 Indiana Derby - Gr. 2 $500,000 Morgan's Guerrilla 4
KEE 10/06/2012 2 Claiming $20,000 Pleasant Run 1
KEE 10/06/2012 8 Dixiana Breeders' Futurity - Gr. 1 $400,000 Joha 1
KEE 10/07/2012 3 Claiming $16,000 Coffee Boy 4
KEE 10/07/2012 8 Juddmonte Spinster Stakes - Gr. 1 $500,000 Juanita 9
KEE 10/07/2012 9 Allowance $54,000 Starsilhouette 4
MNR 10/09/2012 3 Maiden Special Weight $17,600 Dimples 2
KEE 10/10/2012 1 Claiming $21,000 Southern Joy 1
KEE 10/10/2012 6 Maiden Special Weight $50,000 Kamchatka 5
KEE 10/10/2012 9 Starter Allowance $16,000 Swinging Bernie 2
KEE 10/11/2012 2 Maiden Claiming $20,000 Living My Dream 3
KEE 10/11/2012 3 Claiming $15,000 Ha Ha Fooled Ya 2
KEE 10/11/2012 5 Allowance $52,000 Cantonic 3
KEE 10/11/2012 8 JPMorgan Chase Jessamine Stakes - Gr. 3 $150,000 Always Kitten 10
KEE 10/12/2012 1 Starter Allowance $16,000 Lemon Tiz 1
KEE 10/12/2012 3 Claiming $16,000 Jardenia 6
KEE 10/12/2012 5 Claiming $21,000 Holiday Broad 5
KEE 10/12/2012 8 Allowance $54,000 Sly Warrior 2
TDN 10/12/2012 6 Juvenile Stakes $75,000 Sharp Dancer 6
KEE 10/13/2012 2 Starter Allowance $20,000 Brother Bird 7
KEE 10/13/2012 5 Allowance $54,000 Gung Ho 2
KEE 10/13/2012 10 Claiming $20,000 Original Art 11
MNR 10/13/2012 1 Maiden Special Weight $17,600 Left First 6
MNR 10/13/2012 8 Allowance $33,700 Al Muhtasib 5
KEE 10/14/2012 1 Maiden Claiming $12,000 Inazuma 1
KEE 10/14/2012 3 Claiming $35,000 Glacier Bay 4
KEE 10/14/2012 4 Maiden Special Weight $50,000 Brickyard Kitten 6
KEE 10/14/2012 5 Allowance $56,000 Freshman Dorm 2
KEE 10/14/2012 7 Allowance $54,000 Lemons to Lemonade 10
HOO 10/16/2012 1 Maiden Special Weight $40,000 I Do Believe 3
KEE 10/17/2012 2 Claiming $16,000 More Miss Crissy 1
KEE 10/17/2012 3 Maiden Claiming $18,000 Revelationist 2
KEE 10/17/2012 7 Maiden Special Weight $50,000 Smittenwithkitten 8
KEE 10/17/2012 8 Allowance $52,000 Satyana 3
KEE 10/18/2012 1 Maiden Claiming $18,000 Gladhander 5
KEE 10/18/2012 3 Claiming $21,000 Mr. Prankster 2
KEE 10/18/2012 7 Maiden Special Weight $50,000 Kitten Goes Pro 9
KEE 10/18/2012 8 Sycamore Stakes - Gr. 3 $100,000 Kindergarden Kid 1
KEE 10/19/2012 2 Maiden Claiming $18,000 Cautious 9
KEE 10/19/2012 4 Allowance $52,000 Mile Range 5
KEE 10/20/2012 1 Starter Allowance $25,000 Brandys Secret 1
KEE 10/20/2012 9 Lexus Raven Run Stakes - Gr. 2 $250,000 Lotta Lovin 9
KEE 10/21/2012 3 Maiden Claiming $18,000 Dual Mandate 12
KEE 10/24/2012 4 Allowance Optional Claiming $56,000 Derby Kitten 5
KEE 10/25/2012 2 Starter Allowance $25,000 Bernie the Maestro 1
KEE 10/25/2012 3 Maiden Claiming $19,000 Dimples 5
KEE 10/25/2012 4 Allowance $56,000 Manly 6
KEE 10/25/2012 5 Maiden Special Weight $50,000 Kamchatka 4
KEE 10/25/2012 6 Claiming $20,000 Chant My Name 4
KEE 10/25/2012 7 Maiden Special Weight $50,000 Smokinindaboysroom 11
KEE 10/26/2012 1 Claiming $15,000 Ha Ha Fooled Ya 3
KEE 10/26/2012 2 Claiming $35,000 Bell by the Ridge 4
KEE 10/26/2012 4 Maiden Claiming $18,000 Gnostic 2
BEL 10/27/2012 7 Maiden Special Weight $52,000 Sheedbdawon 8
KEE 10/27/2012 1 Maiden Claiming $18,000 Crypto Kitten 3
KEE 10/27/2012 1 Maiden Claiming $18,000 Living My Dream 4
KEE 10/27/2012 6 Allowance $52,000 Loud Pipes 2
KEE 10/27/2012 6 Allowance $52,000 Magical Season 4
KEE 10/27/2012 7 Allowance Optional Claiming $57,000 Lonesome Street 6
KEE 10/27/2012 9 Fayette Stakes - Gr. 2 $150,000 Twinspired 10
KEE 10/27/2012 10 Claiming $16,000 Inazuma 11
CD 10/31/2012 2 Claiming $19,000 Southern Joy 6
CD 10/31/2012 3 Claiming $13,000 Market Strike 3
CD 10/31/2012 10 Claiming $15,000 Jardenia 2
CD 11/01/2012 2 Starter Allowance $21,000 Horned Frog 8
CD 11/01/2012 3 Maiden Claiming $14,000 Box Office Appeal 3
CD 11/02/2012 4 Maiden Special Weight $50,000 Let's Run 5
CD 11/02/2012 8 Allowance $52,000 Steal the Dance 5
WO 11/02/2012 8 Claiming $28,200 Hey Cuz 3
AQU 11/03/2012 3 Allowance $59,000 Sneaky Kitten 1
CD 11/03/2012 4 Claiming $39,500 Lemons to Lemonade 2
CD 11/03/2012 9 Chilukki Stakes - Gr. 2 $150,000 Juanita 4
MNR 11/03/2012 8 Mountaineer Mile Stakes $130,000 Parent's Honor 9
SA 11/03/2012 4 Breeders' Cup Juvenile Turf - Gr. 1 $1,000,000 Joha 8
CD 11/04/2012 4 Allowance Optional Claiming $58,000 Major Marvel 2
CD 11/04/2012 10 Claiming $15,000 Coffee Boy 6
CD 11/07/2012 10 Maiden Claiming $14,000 Momentum Investor 2
CD 11/08/2012 3 Maiden Claiming $14,000 D Shirt Maker 4
CD 11/08/2012 5 Maiden Claiming $14,000 Left First 1
CD 11/08/2012 6 Allowance $52,000 Always Kitten 2
CD 11/09/2012 4 Claiming $35,000 Glacier Bay 5
CD 11/09/2012 7 Allowance $54,000 Sly Warrior 3
CD 11/09/2012 9 Allowance Optional Claiming $56,000 Freshman Dorm 5
CD 11/10/2012 5 Claiming $30,000 Heir Joe 3
CD 11/10/2012 7 Allowance $52,000 Giant Sleep 7
RET 11/10/2012 5 El Joven Stakes $75,000 Admiral Kitten 1
RET 11/10/2012 9 M2 Technology La Senorita Stakes $75,000 Kitten's Dumplings 1
CD 11/11/2012 6 Maiden Special Weight $50,000 Louie Villain 7
CD 11/11/2012 8 Claiming $22,500 Holiday Broad 3
CD 11/11/2012 9 Allowance $52,000 Magical Season 5
CD 11/11/2012 9 Allowance $52,000 Loud Pipes 7
CD 11/11/2012 10 Claiming $13,000 Wound Up 10
CD 11/14/2012 5 Allowance $52,000 Satyana 6
CD 11/15/2012 2 Claiming $26,000 Manly 6
CD 11/15/2012 3 Maiden Claiming $14,000 Living My Dream 2
CD 11/17/2012 4 Maiden Claiming $14,000 Gladhander 3
CD 11/17/2012 7 Commonwealth Turf Stakes - Gr. 3 $100,000 King David 2
AQU 11/18/2012 5 Maiden Special Weight $67,000 Bau Bai Gold 9
CD 11/18/2012 3 Maiden Claiming $14,000 Dimples 1
CD 11/18/2012 8 Maiden Special Weight $50,000 I Do Believe 12
CD 11/21/2012 4 Starter Allowance $21,000 Anabaa's Fortune 8
CD 11/21/2012 5 Claiming $30,000 Giant Sleep 8
CD 11/21/2012 7 Claiming $19,000 Holiday Broad 2
CD 11/22/2012 5 Claiming $17,000 Horned Frog 1
CD 11/23/2012 1 Maiden Claiming $21,000 Revelationist 2
CD 11/23/2012 6 Claiming $16,000 Heir Joe 1
CD 11/23/2012 8 Claiming $16,000 Chant My Name 7
CD 11/23/2012 9 Allowance $52,000 Manda Bay 6
FG 11/23/2012 9 Woodchopper Stakes $75,000 Gung Ho 7
CD 11/24/2012 11 Kentucky Jockey Club Stakes - Gr. 2 $150,000 Joha 9
CD 11/24/2012 12 Maiden Special Weight $50,000 Dusty Money 9
FG 11/24/2012 3 Claiming $19,000 Left First 4
CD 11/25/2012 3 Maiden Claiming $14,000 Box Office Appeal 5
CD 11/25/2012 4 Allowance $52,000 Always Kitten 8
CD 11/25/2012 7 Allowance $54,000 Kitten's Dancer 4
CD 11/25/2012 8 Maiden Special Weight $50,000 Kamchatka 5
CD 11/25/2012 8 Maiden Special Weight $50,000 Kitten Goes Pro 6
AQU 11/30/2012 7 Allowance Optional Claiming $61,000 Sneaky Kitten 2
FG 11/30/2012 4 Maiden Claiming $23,000 Exotic Mischief 2
TP 11/30/2012 9 Allowance Optional Claiming $27,000 Artemus Kitten 2
TP 11/30/2012 10 Allowance Optional Claiming $25,000 Twinspired 1
GP 12/01/2012 4 Starter Stakes $100,000 Gibson 4
GP 12/01/2012 5 Starter Stakes $100,000 Brother Bird 1
GP 12/01/2012 6 Starter Stakes $100,000 Bernie the Maestro 1
GP 12/01/2012 6 Starter Stakes $100,000 Won Fast Bullet 3
GP 12/01/2012 7 Starter Stakes $100,000 Brandys Secret 6
GP 12/01/2012 8 Starter Stakes $125,000 Starsilhouette 1
GP 12/01/2012 8 Starter Stakes $125,000 Lemons to Lemonade 6
GP 12/01/2012 8 Starter Stakes $125,000 Juanita 8
GP 12/01/2012 9 Starter Stakes $125,000 Major Marvel 2
GP 12/01/2012 9 Starter Stakes $125,000 King David 4
GP 12/01/2012 10 Starter Stakes $200,000 Parent's Honor 1
TP 12/01/2012 8 Maiden Special Weight $21,000 Smokinindaboysroom 1
TP 12/01/2012 9 Allowance Optional Claiming $23,000 Satyana 8
TP 12/01/2012 10 Holiday Inaugural Stakes $50,000 Lotta Lovin 3
TP 12/02/2012 4 Claiming $6,500 Wound Up 8
TP 12/02/2012 9 Allowance Optional Claiming $23,000 Mr. Prankster 1
TP 12/06/2012 6 Claiming $7,500 Hey Cuz 1
TP 12/06/2012 7 Maiden Special Weight $21,000 Alydorable 2
TP 12/06/2012 8 Allowance Optional Claiming $23,000 Southern Joy 3
TP 12/06/2012 9 Maiden Special Weight $21,000 Headstrong Beauty 4
TP 12/08/2012 9 Allowance Optional Claiming $23,000 Tivoli 8
TP 12/09/2012 4 Maiden Claiming $6,500 D Shirt Maker 4
TP 12/09/2012 6 Claiming $7,500 Market Strike 5
FG 12/13/2012 2 Maiden Claiming $17,000 Living My Dream 1
FG 12/14/2012 6 Starter Optional Claiming $31,000 Ghost Is Clear 1
FG 12/15/2012 4 Maiden Special Weight $45,000 Animal Style 2
FG 12/15/2012 6 Allowance $47,000 Magical Season 1
FG 12/15/2012 6 Allowance $47,000 Freefourbelle 9
FG 12/15/2012 8 Allowance Optional Claiming $49,000 Bell by the Ridge 9
GP 12/15/2012 5 Claiming $33,100 Steal the Dance 3
TP 12/15/2012 10 Prairie Bayou Stakes $50,000 Twinspired 2
TP 12/15/2012 10 Prairie Bayou Stakes $50,000 Derby Kitten 5
TP 12/16/2012 9 Allowance Optional Claiming $23,000 Manda Bay 2
GP 12/20/2012 4 Starter Allowance $27,500 Major Marvel 1
TP 12/20/2012 2 Maiden Claiming $6,500 D Shirt Maker 8
TP 12/20/2012 3 Claiming $6,500 Market Strike 2
FG 12/21/2012 8 Maiden Special Weight $45,000 Gunderson 7
GP 12/21/2012 1 Starter Allowance $22,500 Brother Bird 2
TP 12/21/2012 3 Maiden Claiming $6,500 Run Kitten Run 2
TP 12/22/2012 8 Allowance Optional Claiming $25,000 Kitten's Dancer 2
TP 12/22/2012 11 Maiden Special Weight $21,000 I Do Believe 1
GP 12/26/2012 7 Starter Allowance $27,500 Brandys Secret 1
GP 12/26/2012 9 Claiming $32,500 Lighthouse Sound 1
FG 12/27/2012 5 Starter Optional Claiming $20,000 Horned Frog 1
FG 12/27/2012 8 Allowance Optional Claiming $49,000 Ghost Is Clear 1
GP 12/27/2012 5 Maiden Special Weight $52,500 Kitten Goes Pro 2
GP 12/27/2012 10 Maiden Claiming $38,800 Brickyard Kitten 8
TP 12/27/2012 1 Maiden Claiming $5,500 Crypto Kitten 1
GP 12/28/2012 1 Maiden Claiming $17,500 Bin Elusive 1
GP 12/28/2012 3 Claiming $32,500 Gibson 3
GP 12/28/2012 7 Maiden Special Weight $52,500 Smittenwithkitten 4
FG 12/29/2012 4 Starter Optional Claiming $31,000 Bell by the Ridge 2
GP 12/29/2012 5 Mr. Prospector Stakes - Gr. 3 $100,000 Bull Dozer 4
TP 12/29/2012 8 Allowance Optional Claiming $23,000 Loud Pipes 2
TP 12/29/2012 9 Holiday Cheer Stakes $50,000 Gung Ho 3
TP 12/30/2012 1 Claiming $11,500 Psycho Chick 6
TP 12/30/2012 2 Starter Allowance $11,500 Anabaa's Fortune 3
TP 12/30/2012 10 Maiden Claiming $8,500 Headstrong Beauty 1
FG 12/31/2012 6 Maiden Claiming $23,000 Exotic Mischief 1
TP 12/31/2012 8 Maiden Special Weight $21,000 Always Tomorrow 7
TP 12/31/2012 9 Allowance Optional Claiming $23,000 Giant Sleep 9